Disclaimer

Please do not use the information listed here in-flight or in-navigation, as they are not provided to us by the airports but are provided by volunteers, so they might be outdated.

Search


Regions


Airport information page

No radio frequency information is available.

Airport informations:
Latitude: 26° 13' 28.03" S
Longitude: 048° 47' 50.51" W
Elevation: 15 feet - 5 meters
Operating hours: Remarks
Operating agency: Civil government, landing fees and diplomatic clearance may be required
Timezone: UTC-3(-2DT)
Fuel: Jet A1, without icing nhibitor.

100/130 octane gasoline, leaded, MIL-L-5572F (GREEN)

Runway information:
15/33 - 5381 x 148 feet< - >1640 x 45 meters

Recent METARs:
SBJV 200100Z 00000KT 5000 -RA BR OVC014 24/23 Q1015
SBJV 200100Z 00000KT 5000 -RA BR OVC014 24/23 Q1015

Airport on the map: